Weather History for Aberdeen, SD

Change the Weather History Date:

Wednesday, February 27, 2013

  Actual Average Record
Temperature  
Mean Temperature 16 °F 22 °F  
Max Temperature 30 °F 32 °F 65 °F (1895)
Min Temperature 2 °F 12 °F -23 °F (2001)
Degree Days  
Heating Degree Days 49 43  
Month to date heating degree days 1356 1287  
Since 1 July heating degree days 6369 6421  
Cooling Degree Days 0 0  
Month to date cooling degree days 0 0  
Year to date cooling degree days 0 0  
Moisture  
Dew Point 15 °F    
Average Humidity 81    
Maximum Humidity 88    
Minimum Humidity 74    
Precipitation  
Precipitation 0.00 in 0.02 in 1.55 in (1903)
Month to date precipitation 1.06 0.52  
Year to date precipitation 1.84 0.99  
Snow  
Snow 0.00 in - - ()
Month to date snowfall 15.6  
Since 1 July snowfall 39.1  
Snow Depth 8.00 in    
Sea Level Pressure  
Sea Level Pressure 30.21 in    
Wind  
Wind Speed 11 mph (NNW)    
Max Wind Speed 21 mph    
Max Gust Speed 28 mph    
Visibility 10 miles    
Events      
T = Trace of Precipitation, MM = Missing Value Source: NWS Daily Summary

Daily Weather History Graph

Daily Weather History Graph

Search for Another Location

Airport:

Trip Planner

Search our weather history database for the weather conditions in past years. The results will help you decide how hot, cold, wet, or windy it might be!

Date:

Astronomy

Feb. 27, 2013 Rise Set
Actual Time 7:14 AM CST 6:18 PM CST
Civil Twilight 6:45 AM CST 6:48 PM CST
Nautical Twilight 6:10 AM CST 7:22 PM CST
Astronomical Twilight 5:36 AM CST 7:56 PM CST
Moon 8:51 PM CST (2/27) 7:42 AM CST (2/27)
Length of Visible Light 12h 02m
Length of Day
11h 03m
Waning Gibbous, 96% of the Moon is Illuminated
Feb 27
Waning Gibbous
Mar 4
Last Quarter
Mar 11
New
Mar 19
First Quarter
Mar 27
Full

Hourly Weather History & Observations

Time (CST) Temp. Windchill Dew Point Humidity Pressure Visibility Wind Dir Wind Speed Gust Speed Precip Events Conditions
12:53 AM 7.0 °F 0.1 °F 3.0 °F 84% 30.16 in 9.0 mi North 3.5 mph - N/A   Clear
1:53 AM 6.1 °F -0.9 °F 1.9 °F 83% 30.16 in 9.0 mi NW 3.5 mph - N/A   Clear
2:53 AM 3.0 °F - -2.0 °F 80% 30.16 in 6.0 mi Calm Calm - N/A   Haze
3:53 AM 8.1 °F 1.4 °F 3.0 °F 80% 30.15 in 10.0 mi North 3.5 mph - N/A   Clear
4:53 AM 7.0 °F 0.1 °F 3.0 °F 84% 30.16 in 10.0 mi NNE 3.5 mph - N/A   Clear
5:53 AM 10.0 °F 1.8 °F 5.0 °F 80% 30.18 in 10.0 mi NNW 4.6 mph - N/A   Clear
6:53 AM 9.0 °F -0.9 °F 5.0 °F 84% 30.19 in 10.0 mi NNW 5.8 mph - N/A   Clear
7:53 AM 10.9 °F 2.9 °F 6.1 °F 81% 30.20 in 10.0 mi NNW 4.6 mph - N/A   Clear
8:53 AM 16.0 °F 10.4 °F 10.0 °F 77% 30.22 in 8.0 mi NNW 3.5 mph - N/A   Clear
9:53 AM 19.9 °F 11.1 °F 14.0 °F 78% 30.22 in 7.0 mi North 6.9 mph - N/A   Scattered Clouds
10:53 AM 25.0 °F 14.8 °F 18.0 °F 75% 30.22 in 10.0 mi North 10.4 mph - N/A   Clear
11:53 AM 26.6 °F 15.2 °F 19.4 °F 74% 30.15 in 10.0 mi NNW 13.8 mph - N/A   Clear
12:53 PM 28.0 °F 15.3 °F 21.0 °F 75% 30.22 in 10.0 mi North 18.4 mph - N/A   Clear
1:53 PM 28.9 °F 16.5 °F 21.9 °F 75% 30.22 in 10.0 mi North 18.4 mph - N/A   Scattered Clouds
2:53 PM 28.9 °F 16.9 °F 21.9 °F 75% 30.22 in 10.0 mi North 17.3 mph - N/A   Partly Cloudy
3:53 PM 28.9 °F 17.3 °F 21.9 °F 75% 30.22 in 10.0 mi North 16.1 mph - N/A   Clear
4:14 PM 28.4 °F 15.8 °F 23.0 °F 80% 30.16 in 10.0 mi NNW 18.4 mph - N/A   Mostly Cloudy
4:41 PM 28.4 °F 15.8 °F 21.2 °F 74% 30.16 in 10.0 mi North 18.4 mph - N/A   Scattered Clouds
4:53 PM 28.0 °F 15.3 °F 21.9 °F 78% 30.23 in 10.0 mi North 18.4 mph - N/A   Mostly Cloudy
5:13 PM 28.4 °F 16.2 °F 21.2 °F 74% 30.16 in 10.0 mi North 17.3 mph - N/A   Overcast
5:53 PM 28.0 °F 15.3 °F 21.9 °F 78% 30.24 in 10.0 mi NNW 18.4 mph - N/A   Overcast
6:53 PM 27.0 °F 13.9 °F 21.0 °F 78% 30.26 in 10.0 mi North 18.4 mph 26.5 mph N/A   Overcast
7:53 PM 26.1 °F 13.1 °F 21.0 °F 81% 30.27 in 10.0 mi North 17.3 mph - N/A   Overcast
8:10 PM 26.6 °F 13.4 °F 21.2 °F 80% 30.20 in 10.0 mi North 18.4 mph - N/A   Overcast
8:53 PM 25.0 °F 11.7 °F 19.0 °F 78% 30.27 in 10.0 mi NNW 17.3 mph - N/A   Overcast
9:53 PM 24.1 °F 10.1 °F 19.0 °F 81% 30.28 in 10.0 mi North 18.4 mph - N/A   Overcast
10:53 PM 23.0 °F 9.6 °F 17.1 °F 78% 30.26 in 10.0 mi North 16.1 mph - N/A   Overcast
11:20 PM 21.2 °F 8.3 °F 15.8 °F 80% 30.20 in 10.0 mi North 13.8 mph - N/A   Scattered Clouds
11:53 PM 19.4 °F 6.6 °F 15.8 °F 86% 30.20 in 10.0 mi North 12.7 mph - N/A   Clear